This is the latest recevied weather packets stored in our database for station/object N3LF. If no packets are shown the sender has not sent any weather packets the latest 10 day(s).
| Time | Temp. | Humidity | Pressure | Rain* | Wind** | Luminosity | Snow |
|---|---|---|---|---|---|---|---|
| 1777603010 | 10.56° C | 84% | 1018.5 hPa | 0 mm | - | 0 W/m² | - |
| 1777602706 | 10.56° C | 83% | 1018.5 hPa | 0 mm | - | 0 W/m² | - |
| 1777602400 | 10.56° C | 82% | 1018.2 hPa | 0 mm | - | 0 W/m² | - |
| 1777602097 | 10.56° C | 83% | 1018.2 hPa | 0 mm | - | 0 W/m² | - |
| 1777601792 | 10.56° C | 84% | 1017.8 hPa | 0 mm | - | 0 W/m² | - |
| 1777601488 | 10.56° C | 82% | 1018.2 hPa | 0 mm | - | 0 W/m² | - |
| 1777601183 | 10.56° C | 82% | 1018.2 hPa | 0 mm | - | 0 W/m² | - |
| 1777600882 | 11.11° C | 82% | 1018 hPa | 0 mm | - | 0 W/m² | - |
| 1777600577 | 11.11° C | 82% | 1018 hPa | 0 mm | - | 0 W/m² | - |
| 1777600273 | 11.11° C | 81% | 1018.1 hPa | 0 mm | - | 0 W/m² | - |
| 1777599968 | 11.67° C | 81% | 1018 hPa | 0 mm | - | 0 W/m² | - |
| 1777599665 | 11.67° C | 76% | 1017.8 hPa | 0 mm | - | 0 W/m² | - |
| 1777599362 | 11.67° C | 76% | 1017.8 hPa | 0 mm | - | 0 W/m² | - |
| 1777599059 | 11.67° C | 78% | 1017.8 hPa | 0 mm | - | 0 W/m² | - |
| 1777598756 | 11.67° C | 74% | 1017.6 hPa | 0 mm | - | 0 W/m² | - |
| 1777598451 | 11.67° C | 75% | 1017.6 hPa | 0 mm | - | 0 W/m² | - |
| 1777598150 | 12.22° C | 74% | 1017.6 hPa | 0 mm | - | 0 W/m² | - |
| 1777597845 | 12.22° C | 72% | 1017.5 hPa | 0 mm | - | 0 W/m² | - |
| 1777597544 | 12.78° C | 70% | 1017.5 hPa | 0 mm | - | 0 W/m² | - |
| 1777597241 | 12.78° C | 70% | 1017.4 hPa | 0 mm | - | 0 W/m² | - |
| 1777596936 | 12.78° C | 68% | 1017.6 hPa | 0 mm | - | 0 W/m² | - |
| 1777596633 | 13.33° C | 65% | 1017.5 hPa | 0 mm | - | 0 W/m² | - |
| 1777596329 | 13.33° C | 65% | 1017.6 hPa | 0 mm | - | 1 W/m² | - |
| 1777596028 | 13.89° C | 63% | 1017.4 hPa | 0 mm | - | 2 W/m² | - |
| 1777595727 | 13.89° C | 66% | 1017.5 hPa | 0 mm | - | 3 W/m² | - |
* Rain latest hour (hover to see other rain measurements)
** Current wind speed in m/s (hover to see current wind gust speed)